Date,TemperatureHighF,TemperatureAvgF,TemperatureLowF,DewpointHighF,DewpointAvgF,DewpointLowF,HumidityHigh,HumidityAvg,HumidityLow,PressureMaxIn,PressureMinIn,WindSpeedMaxMPH,WindSpeedAvgMPH,GustSpeedMaxMPH,PrecipitationSumIn
2013-1-1,40.4,31.5,26.3,33.8,29.1,25.3,97,91,74,30.52,30.37,4,0,6,0.01
2013-1-2,46.3,32.0,26.3,34.4,28.6,25.1,96,88,60,30.37,30.21,2,0,3,0.01
2013-1-3,45.2,32.8,24.4,34.5,27.8,22.9,96,83,53,30.23,30.12,4,0,7,0.12
2013-1-4,51.2,42.5,35.5,45.0,40.6,34.5,98,93,78,30.33,30.18,7,1,11,0.10
2013-1-5,46.0,40.4,38.3,42.0,38.5,37.2,97,93,80,30.22,30.13,5,1,7,0.09
2013-1-6,46.6,43.2,40.2,42.0,39.7,37.7,96,88,76,30.20,30.01,9,3,14,0.34
2013-1-7,51.2,47.6,40.2,47.7,44.2,39.2,97,88,79,30.18,29.84,13,7,24,0.43
2013-1-8,55.5,49.0,42.0,49.1,45.1,40.7,97,86,74,30.18,29.75,13,5,24,0.58
2013-1-9,51.2,41.7,36.1,48.4,38.6,34.3,93,89,82,29.97,29.70,8,4,15,1.03
2013-1-10,39.1,36.5,31.3,35.3,33.8,30.1,96,90,82,30.13,29.96,4,1,6,0.03
2013-1-11,34.4,29.5,25.1,31.1,27.8,23.9,96,93,86,30.36,30.13,4,0,5,0.01
2013-1-12,36.3,27.8,23.1,29.7,24.9,21.6,95,89,67,30.48,30.34,5,1,9,0.01
2013-1-13,35.5,27.6,20.4,28.9,24.6,18.6,94,88,74,30.52,30.46,2,0,4,0.01
2013-1-14,37.7,33.7,30.5,32.4,29.5,27.7,91,84,72,30.59,30.49,2,0,3,0.00
2013-1-15,43.7,34.7,28.0,35.3,31.4,26.8,95,88,69,30.72,30.59,4,1,5,0.00
2013-1-16,40.8,31.4,25.8,34.5,29.2,24.6,96,92,78,30.70,30.54,4,0,5,0.00
2013-1-17,36.3,31.0,27.1,34.4,29.8,26.1,97,95,90,30.55,30.32,5,1,7,0.01
2013-1-18,35.2,31.3,27.1,33.7,30.3,26.1,97,96,94,30.37,30.29,3,0,4,0.00
2013-1-19,32.8,31.1,29.8,31.2,30.1,29.1,97,96,92,30.41,30.36,2,1,4,0.00
2013-1-20,34.8,30.3,28.0,32.7,29.3,27.3,97,96,92,30.42,30.29,2,0,3,0.00
2013-1-21,33.5,30.2,26.9,31.8,29.0,25.9,97,95,88,30.30,30.17,3,1,7,0.01
2013-1-22,39.0,32.0,25.7,35.1,30.0,24.5,97,93,83,30.17,29.93,2,0,3,0.00
2013-1-23,44.2,39.8,34.7,40.8,37.2,33.2,96,90,79,30.15,29.86,8,2,12,0.27
2013-1-24,47.5,41.9,33.5,40.7,38.0,32.0,97,87,64,30.23,30.07,7,2,10,0.20
2013-1-25,50.8,45.1,39.1,46.8,43.4,38.1,98,94,85,30.08,29.95,3,0,6,0.31
2013-1-26,47.6,42.5,37.9,40.2,38.8,37.1,97,87,73,30.06,29.90,7,3,17,0.14
2013-1-27,42.5,40.4,39.2,39.6,38.1,37.0,94,91,87,30.08,30.01,7,4,13,0.45
2013-1-28,42.7,41.1,38.9,40.8,39.1,37.4,96,93,90,30.12,30.03,6,3,11,0.46
2013-1-29,46.9,45.0,41.5,45.4,43.2,39.9,95,94,91,30.37,30.11,9,4,15,0.78
2013-1-30,48.5,47.3,45.0,47.1,45.8,43.2,96,95,93,30.40,30.34,9,5,15,0.23
2013-1-31,49.7,47.9,46.7,46.5,45.7,44.4,97,92,83,30.42,30.32,8,3,12,0.18
2013-2-1,50.8,46.4,44.1,46.5,44.4,42.2,97,93,80,30.43,30.35,4,1,7,0.02
2013-2-2,44.2,40.5,37.7,42.6,39.1,36.7,96,95,90,30.40,30.27,3,1,5,0.00
2013-2-3,49.0,43.3,36.3,44.2,40.8,35.3,97,91,79,30.33,30.23,5,2,7,0.10
2013-2-4,51.4,47.0,44.3,44.9,43.1,41.6,93,86,75,30.23,29.90,6,2,8,0.00
2013-2-5,51.2,47.1,44.7,45.0,42.7,40.9,93,85,73,29.97,29.85,9,5,14,0.55
2013-2-6,51.4,45.5,42.0,43.4,41.2,39.8,96,85,66,30.08,29.81,9,4,14,0.19
2013-2-7,50.3,42.8,32.4,42.2,36.8,30.9,96,80,55,30.21,29.81,9,3,15,0.18
2013-2-8,44.6,37.9,30.1,37.8,34.5,28.8,96,88,73,30.33,30.22,3,1,5,0.00
2013-2-9,44.8,41.2,38.4,41.1,38.9,36.1,96,91,84,30.36,30.28,3,0,4,0.03
2013-2-10,46.4,41.3,35.9,40.4,37.6,34.9,96,87,68,30.40,30.34,5,1,9,0.00
2013-2-11,48.2,43.3,38.8,41.1,38.8,36.9,94,84,68,30.38,30.34,5,1,8,0.00
2013-2-12,50.7,47.1,42.6,46.6,44.5,39.6,96,91,82,30.42,30.31,10,4,14,0.09
2013-2-13,49.5,46.9,45.0,45.4,42.2,40.1,92,84,76,30.52,30.31,11,3,14,0.03
2013-2-14,50.8,46.6,43.0,45.0,42.9,40.4,94,87,77,30.57,30.51,7,2,10,0.04
2013-2-15,56.3,44.2,38.3,47.4,41.4,37.5,97,90,70,30.57,30.21,4,1,6,0.00
2013-2-16,51.9,44.4,36.9,44.5,40.2,35.9,97,86,61,30.22,30.14,9,4,15,0.16
2013-2-17,47.2,43.0,40.0,40.2,37.0,35.3,92,79,65,30.27,30.14,8,2,10,0.02
2013-2-18,47.5,41.2,35.6,39.1,36.6,33.9,96,85,64,30.14,29.78,5,1,6,0.01
2013-2-19,51.1,40.7,34.6,36.8,34.7,32.2,95,81,53,30.03,29.75,6,1,9,0.00
2013-2-20,45.0,39.3,33.9,40.1,35.7,31.6,96,87,66,30.07,30.01,7,1,9,0.04
2013-2-21,44.4,41.8,37.5,40.4,38.5,36.2,96,88,82,30.10,30.03,11,5,17,0.12
2013-2-22,45.5,43.1,39.9,41.7,38.8,34.7,90,85,77,30.08,29.74,13,8,26,0.70
2013-2-23,49.7,42.1,39.2,40.5,37.4,34.7,94,84,61,30.40,29.93,10,3,16,0.11
2013-2-24,48.1,44.4,40.2,40.7,37.4,35.4,89,77,62,30.41,29.97,7,4,17,0.01
2013-2-25,51.4,44.5,41.1,40.5,36.8,29.3,88,75,44,30.32,29.92,12,7,22,0.25
2013-2-26,49.1,44.5,40.4,37.4,33.6,29.8,84,66,48,30.38,30.22,6,3,9,0.00
2013-2-27,50.8,44.8,40.0,44.6,41.0,37.8,96,87,68,30.32,30.22,5,1,7,0.38
2013-2-28,54.5,48.1,42.7,50.5,46.1,41.6,97,93,86,30.34,30.21,10,3,20,0.30
2013-3-1,59.7,56.1,52.8,50.9,49.8,47.7,92,80,70,30.38,30.30,13,5,18,0.10
2013-3-2,57.7,48.6,37.7,48.9,44.0,35.9,95,85,66,30.30,30.08,7,2,11,0.63
2013-3-3,49.5,40.7,31.1,38.1,34.6,29.5,96,80,49,30.33,30.23,6,2,10,0.03
2013-3-4,54.7,39.8,27.6,36.3,28.7,23.9,96,70,34,30.33,29.94,7,1,12,0.01
2013-3-5,51.9,43.4,34.5,39.4,35.1,30.2,87,74,49,29.94,29.74,5,1,9,0.00
2013-3-6,44.7,41.3,37.6,42.0,38.9,35.8,94,91,85,29.92,29.61,7,1,14,0.80
2013-3-7,51.5,44.0,36.3,44.1,40.4,34.9,96,88,70,30.11,29.92,5,1,8,0.47
2013-3-8,54.2,40.8,32.8,41.6,36.8,32.0,97,87,59,30.26,30.10,7,1,9,0.01
2013-3-9,57.4,42.2,29.7,41.3,35.0,28.5,96,78,42,30.51,30.27,5,1,6,0.01
2013-3-10,46.5,41.0,34.2,43.3,38.4,32.2,95,90,81,30.52,30.45,3,0,4,0.05
2013-3-11,52.3,45.4,40.0,46.4,42.4,38.8,96,90,72,30.47,30.18,3,0,6,0.04
2013-3-12,55.9,53.4,49.1,49.9,48.2,45.4,91,83,68,30.18,30.09,12,8,20,0.03
2013-3-13,53.7,52.2,50.1,51.3,49.5,47.7,97,91,82,30.23,30.11,10,4,14,0.24
2013-3-14,56.9,51.5,48.9,51.3,48.3,45.5,97,89,76,30.17,30.05,7,2,10,0.04
2013-3-15,60.4,54.1,49.9,50.6,48.5,45.9,91,82,67,30.23,30.16,8,4,13,0.01
2013-3-16,51.0,47.3,41.2,46.3,41.9,35.9,89,82,71,30.16,29.92,8,4,18,0.18
2013-3-17,49.0,43.0,40.3,36.1,34.7,31.0,84,73,54,30.22,30.00,8,5,14,0.01
2013-3-18,54.0,43.9,35.4,40.6,36.0,32.3,92,75,45,30.27,30.15,12,4,20,0.01
2013-3-19,58.2,41.9,32.5,42.3,34.9,26.7,95,80,30,30.26,29.62,6,1,15,0.27
2013-3-20,51.8,46.6,40.7,48.1,41.7,33.6,97,84,70,30.05,29.41,10,5,22,0.69
2013-3-21,48.1,40.1,35.9,36.9,34.4,29.8,93,80,53,30.25,30.06,7,3,11,0.18
2013-3-22,46.7,38.6,31.2,35.8,33.1,29.0,94,81,57,30.40,30.24,7,2,8,0.04
2013-3-23,50.9,38.3,30.7,35.0,30.4,27.8,95,76,42,30.42,30.32,5,1,8,0.01
2013-3-24,56.9,40.5,28.5,35.3,30.5,26.1,94,72,32,30.33,30.14,3,1,5,0.00
2013-3-25,63.7,47.8,30.6,39.6,32.4,27.9,93,61,28,30.15,29.94,6,1,7,0.00
2013-3-26,62.4,51.7,43.6,41.7,39.5,35.1,85,65,36,30.03,29.97,7,1,9,0.00
2013-3-27,57.0,49.7,43.7,47.7,43.2,40.5,93,79,61,30.01,29.96,4,1,6,0.01
2013-3-28,61.0,49.9,41.7,49.2,44.7,40.1,95,83,58,30.17,30.01,5,1,9,0.01
2013-3-29,66.2,52.1,40.2,47.8,43.7,38.6,95,76,45,30.27,30.17,5,1,8,0.01
2013-3-30,69.8,52.5,37.6,46.2,42.4,36.1,96,72,38,30.28,30.09,7,2,10,0.00
2013-3-31,73.6,55.1,39.6,49.1,44.1,38.0,95,71,36,30.10,29.92,4,1,7,0.00
2013-4-1,64.3,54.0,44.5,50.3,46.8,42.0,93,77,59,30.18,29.98,7,2,13,0.00
2013-4-2,55.6,52.3,49.3,48.9,47.4,45.9,92,83,76,30.23,30.17,5,2,7,0.00
2013-4-3,63.7,53.8,44.3,48.5,45.9,42.4,94,76,52,30.21,29.97,5,1,8,0.00
2013-4-4,58.3,53.3,48.9,54.7,49.6,45.5,95,88,76,29.97,29.66,9,2,16,0.21
2013-4-5,56.3,52.8,48.2,51.4,49.4,46.7,95,88,79,29.90,29.75,10,4,12,0.96
2013-4-6,52.1,47.8,44.2,47.6,44.7,42.9,96,89,81,29.97,29.74,11,4,15,0.77
2013-4-7,45.6,42.7,39.8,43.7,40.9,37.1,96,93,89,29.91,29.51,6,2,11,0.79
2013-4-8,54.7,47.1,42.3,47.3,43.4,40.3,95,87,72,30.30,29.92,7,3,14,0.08
2013-4-9,56.2,49.9,43.2,46.6,43.5,40.2,95,80,56,30.37,30.21,4,1,9,0.00
2013-4-10,58.0,52.7,48.1,50.6,46.0,41.4,92,78,62,30.28,29.95,10,4,16,0.47
2013-4-11,52.0,47.4,42.4,45.1,42.0,39.5,92,82,66,30.34,30.21,5,2,9,0.13
2013-4-12,49.0,43.7,39.7,42.9,39.9,37.3,95,87,67,30.21,29.71,12,4,16,0.49
2013-4-13,46.3,42.1,39.3,41.5,37.7,34.0,95,85,77,30.03,29.79,9,5,14,0.41
2013-4-14,54.7,43.8,37.4,41.9,38.2,31.3,96,82,44,30.05,29.93,7,2,11,0.33
2013-4-15,55.3,43.9,38.0,44.1,39.5,36.7,96,86,56,30.21,29.97,9,2,12,0.14
2013-4-16,55.4,43.9,32.5,43.0,37.1,31.4,97,79,47,30.42,30.21,7,1,9,0.00
2013-4-17,62.7,48.3,34.5,42.4,36.1,25.3,95,68,26,30.48,30.41,7,1,12,0.00
2013-4-18,51.8,48.1,44.5,47.3,42.3,38.1,91,80,69,30.48,30.24,9,4,15,0.19
2013-4-19,55.3,51.3,48.9,52.2,48.8,46.4,94,91,86,30.24,30.08,9,4,15,0.74
2013-4-20,54.8,49.9,47.6,49.6,45.7,43.6,93,85,77,30.31,30.22,8,4,13,0.18
2013-4-21,54.9,47.9,42.4,45.9,42.7,39.7,91,82,67,30.39,30.25,7,3,11,0.07
2013-4-22,61.4,48.4,37.0,43.0,35.8,26.0,96,68,28,30.54,30.39,7,2,11,0.00
2013-4-23,63.8,49.7,34.0,39.6,34.7,27.6,93,62,26,30.45,30.25,7,2,10,0.00
2013-4-24,70.1,53.5,36.8,42.2,36.6,29.0,93,60,23,30.35,30.10,6,2,10,0.00
2013-4-25,72.8,56.5,39.2,47.0,39.9,35.4,90,59,28,30.16,30.07,5,2,9,0.00
2013-4-26,73.0,58.5,44.4,49.4,45.5,40.0,91,65,31,30.27,30.16,5,2,10,0.00
2013-4-27,60.0,55.6,51.8,49.3,42.1,33.5,85,63,38,30.25,30.18,10,5,17,0.12
2013-4-28,60.1,52.5,48.1,49.4,44.3,39.0,92,75,49,30.24,29.99,8,3,13,0.19
2013-4-29,52.9,45.6,39.4,47.1,41.7,37.1,95,87,62,30.21,29.94,7,3,14,1.39
2013-4-30,55.6,45.1,37.3,39.3,35.2,24.0,94,72,30,30.47,30.20,5,2,10,0.06
2013-5-1,66.7,49.8,32.1,41.0,34.0,24.7,94,61,21,30.60,30.48,6,2,13,0.00
2013-5-2,70.3,55.1,39.5,44.2,40.1,35.9,92,61,33,30.57,30.38,6,2,11,0.00
2013-5-3,71.7,56.8,41.7,48.9,44.5,39.1,91,66,40,30.42,30.25,7,2,12,0.00
2013-5-4,78.6,60.9,43.4,49.9,45.1,36.6,94,62,23,30.26,30.02,7,2,11,0.00
2013-5-5,83.9,65.0,46.2,50.4,46.3,38.9,92,57,21,30.02,29.79,7,2,10,0.00
2013-5-6,87.4,67.9,47.9,52.0,46.0,36.9,89,53,17,29.88,29.75,6,2,9,0.00
2013-5-7,73.2,62.6,53.1,54.0,51.3,48.4,85,68,47,30.02,29.84,9,3,14,0.00
2013-5-8,67.4,58.2,52.4,54.2,51.2,48.6,90,78,60,30.16,30.03,4,2,8,0.00
2013-5-9,72.2,58.9,47.4,55.9,51.8,45.8,95,79,52,30.24,30.13,5,1,7,0.00
2013-5-10,80.3,64.8,48.5,58.2,53.0,46.9,96,70,36,30.23,30.12,5,1,8,0.00
2013-5-11,83.6,69.2,57.6,58.7,52.9,46.3,86,58,36,30.19,30.00,5,2,10,0.00
2013-5-12,73.2,65.0,58.4,58.8,57.1,53.1,93,77,52,30.13,30.03,5,2,10,0.41
2013-5-13,67.8,57.2,49.1,56.7,51.7,42.8,94,82,61,30.22,29.94,9,3,13,0.35
2013-5-14,66.1,55.0,45.9,44.1,40.9,31.6,87,63,30,30.26,30.14,5,2,10,0.00
2013-5-15,65.4,53.5,42.9,51.1,45.4,40.3,94,76,42,30.15,30.05,5,1,8,0.07
2013-5-16,70.7,60.3,52.2,53.9,50.7,46.6,96,74,43,30.05,29.88,7,2,12,0.00
2013-5-17,62.5,56.5,52.2,52.4,50.0,47.0,94,80,58,30.09,29.98,7,3,12,0.16
2013-5-18,60.2,56.2,53.3,50.3,48.2,45.6,85,75,61,30.29,30.09,4,2,8,0.00
2013-5-19,64.8,56.8,50.8,51.3,49.7,47.7,91,78,59,30.42,30.30,4,1,9,0.00
2013-5-20,69.9,57.0,47.5,52.5,48.3,45.6,94,75,43,30.38,29.92,4,1,6,0.00
2013-5-21,57.7,51.8,46.4,49.8,45.3,41.7,92,79,60,29.92,29.80,7,3,10,0.28
2013-5-22,53.3,46.9,42.9,46.7,43.2,39.8,93,87,76,29.96,29.88,7,4,11,0.22
2013-5-23,59.7,50.1,43.8,48.4,45.6,42.2,95,85,58,30.04,29.95,6,1,11,0.09
2013-5-24,61.9,52.6,45.7,50.1,47.0,44.4,96,82,56,30.08,30.00,6,2,10,0.08
2013-5-25,64.6,55.8,49.3,49.0,46.9,43.4,94,74,47,30.07,29.99,5,2,8,0.01
2013-5-26,66.4,55.9,49.3,55.2,50.4,46.6,94,83,54,30.02,29.97,4,1,7,0.11
2013-5-27,61.2,55.6,49.3,56.5,52.7,48.1,97,90,77,30.00,29.73,4,1,7,0.30
2013-5-28,61.8,56.0,52.3,54.8,51.2,49.3,94,85,68,29.91,29.79,4,2,10,0.06
2013-5-29,61.6,54.7,49.8,52.6,49.5,46.6,96,83,62,30.00,29.71,6,1,9,0.10
2013-5-30,62.5,55.2,50.2,50.2,47.0,44.9,85,74,54,30.27,30.00,6,4,13,0.01
2013-5-31,66.1,57.4,49.9,49.0,46.9,43.4,88,70,46,30.36,30.27,4,1,8,0.00
2013-6-1,73.3,60.7,48.7,52.0,47.7,41.6,89,66,34,30.27,30.07,6,2,10,0.00
2013-6-2,70.1,60.6,53.6,51.6,49.7,47.1,89,69,47,30.12,30.06,5,1,8,0.01
2013-6-3,72.6,60.6,48.7,54.1,50.6,46.5,93,72,44,30.14,30.07,6,2,10,0.00
2013-6-4,81.4,65.0,49.5,56.5,52.3,47.5,94,67,35,30.15,30.03,5,1,8,0.00
2013-6-5,78.7,66.6,52.2,57.4,53.7,49.0,90,66,44,30.11,30.04,6,2,9,0.00
2013-6-6,80.5,66.7,52.8,57.4,51.8,40.6,92,63,30,30.08,30.02,5,2,10,0.00
2013-6-7,71.9,62.8,56.1,55.4,48.5,40.2,77,61,37,30.17,30.05,7,2,16,0.00
2013-6-8,70.5,60.4,54.1,52.0,49.3,46.4,76,67,49,30.22,30.12,5,2,9,0.00
2013-6-9,61.1,56.0,52.3,48.6,47.5,46.5,83,73,62,30.14,30.12,4,2,7,0.00
2013-7-2,82.8,75.7,64.4,62.5,54.7,-99.9,73,50,35,30.11,30.06,6,-6,9,0.00
2013-7-3,80.2,68.6,59.6,56.2,51.6,45.0,79,56,41,30.17,30.05,5,2,11,0.00
2013-7-4,73.7,63.5,58.4,55.6,52.9,49.1,82,69,48,30.15,30.05,6,2,11,0.00
2013-7-5,73.9,64.8,57.4,57.2,54.7,53.2,88,71,51,30.06,29.97,5,1,8,0.00
2013-7-6,79.9,66.3,55.3,57.9,55.7,52.7,92,71,43,30.00,29.88,5,2,8,0.00
2013-7-7,77.5,66.8,56.5,60.6,57.2,53.6,91,73,50,29.96,29.90,6,2,11,0.00
2013-7-8,79.3,67.4,58.8,60.4,56.7,53.3,84,70,48,30.11,29.97,6,2,8,0.00
2013-7-9,85.8,70.9,55.7,60.1,56.6,51.8,92,64,38,30.13,30.01,5,2,10,0.00
2013-7-10,74.8,64.1,55.7,58.3,54.9,52.0,89,73,51,30.08,29.96,6,2,11,0.00
2013-7-11,72.3,61.9,54.8,51.9,48.9,47.0,80,64,42,30.11,30.02,5,2,10,0.00
2013-7-12,69.0,59.2,51.1,54.3,50.1,46.4,88,73,53,30.14,30.04,4,1,8,0.00
2013-7-13,76.9,63.3,49.0,53.6,50.2,46.7,93,66,35,30.22,30.12,7,2,9,0.00
2013-7-14,81.7,67.0,50.7,53.7,47.7,35.0,89,56,21,30.16,29.99,5,2,9,0.00
2013-7-15,80.9,68.5,53.0,55.0,51.2,46.1,83,56,36,30.07,29.91,7,3,11,0.00
2013-7-16,86.9,71.1,53.9,61.9,55.1,49.5,86,60,31,29.93,29.81,5,1,6,0.00
2013-7-17,72.1,66.3,58.5,61.7,57.6,55.3,89,74,65,30.21,29.90,7,2,11,0.03
2013-7-18,78.3,66.1,57.5,60.1,56.9,54.1,90,74,52,30.25,30.13,5,1,7,0.00
2013-7-19,81.4,67.3,54.6,62.3,57.9,52.5,93,74,50,30.19,30.04,5,2,7,0.00
2013-7-20,77.7,65.9,57.6,61.2,58.2,55.2,92,78,53,30.11,29.97,4,1,8,0.00
2013-7-21,62.4,59.9,59.1,58.5,56.5,55.3,92,89,85,30.00,29.98,2,1,4,0.00
2013-8-6,87.4,79.9,63.8,59.4,55.0,49.9,78,45,28,29.99,29.91,5,2,9,0.00
2013-8-7,86.4,70.9,55.6,59.8,55.7,52.4,90,62,33,30.03,29.95,5,2,8,0.00
2013-8-8,81.9,69.4,59.0,60.4,57.8,54.8,86,68,47,30.06,29.94,5,2,7,0.00
2013-8-9,82.3,70.1,56.8,62.1,57.4,53.6,90,67,45,29.98,29.85,5,2,8,0.00
2013-8-10,78.9,69.7,62.8,64.2,62.2,58.4,95,78,60,30.02,29.91,5,1,8,0.19
2013-8-11,77.2,68.6,61.7,60.7,57.5,54.0,83,68,51,30.08,30.00,6,2,9,0.00
2013-8-12,78.5,69.1,62.0,59.2,56.8,54.5,83,66,48,30.09,30.01,5,2,6,0.00
2013-8-13,82.0,68.4,56.1,57.7,55.6,51.5,91,67,37,30.12,29.95,5,1,10,0.00
2013-8-14,83.5,67.4,56.4,61.9,57.3,53.7,91,73,38,29.99,29.92,4,1,7,0.02
2013-8-15,69.2,66.6,62.9,66.5,63.8,60.6,95,91,83,30.01,29.94,1,0,4,0.18
2013-8-16,85.5,73.2,63.8,65.9,61.5,55.7,97,70,40,30.03,29.95,4,1,6,0.01
2013-8-17,80.2,70.8,64.5,61.1,57.8,53.0,78,64,47,30.09,30.03,5,2,11,0.00
2013-8-18,79.6,69.4,63.0,59.5,57.6,54.4,83,67,48,30.14,30.08,6,2,8,0.00
2013-8-19,79.8,68.7,60.2,59.1,56.5,50.8,85,67,47,30.14,30.06,5,2,8,0.00
2013-8-20,77.1,66.7,56.1,56.6,52.6,48.9,82,62,44,30.18,30.08,7,2,12,0.00
2013-8-21,81.9,66.7,50.8,57.9,53.9,48.4,92,67,41,30.12,29.94,6,2,9,0.00
2013-8-22,84.4,70.7,54.8,62.2,56.7,51.9,91,64,38,29.97,29.81,4,1,6,0.00
2013-8-23,75.3,67.2,63.4,59.4,57.1,54.9,78,70,54,29.92,29.84,6,2,12,0.00
2013-8-24,74.5,66.4,60.0,58.5,56.2,52.4,91,71,47,29.95,29.87,4,2,6,0.00
2013-8-25,71.8,62.4,52.5,60.2,55.2,49.9,92,78,57,29.97,29.89,4,1,5,0.01
2013-8-26,76.7,65.3,58.2,61.5,58.4,56.2,94,80,54,29.98,29.87,4,1,6,0.03
2013-8-27,79.8,69.2,60.5,62.4,59.6,57.6,93,73,51,29.98,29.81,5,1,10,0.01
2013-8-28,79.0,69.5,61.5,65.5,62.2,58.4,96,79,56,29.91,29.84,4,1,6,0.29
2013-8-29,75.2,66.8,63.7,67.8,64.1,62.5,96,91,72,30.04,29.88,6,1,13,1.40
2013-8-30,78.2,67.6,58.8,63.0,59.3,53.4,96,77,44,30.18,30.05,5,1,6,0.00
2013-8-31,81.9,66.2,53.0,62.7,57.3,51.6,96,76,46,30.11,29.85,6,1,9,0.00
2013-9-1,82.5,69.7,58.0,63.3,59.2,56.5,95,72,46,29.91,29.81,5,1,8,0.00
2013-9-2,83.6,69.8,58.5,61.5,57.9,54.6,88,68,41,29.96,29.87,5,1,9,0.00
2013-9-3,74.8,65.7,60.1,64.0,61.0,58.1,96,86,59,30.05,29.95,3,1,5,0.11
2013-9-4,68.5,63.5,58.1,62.1,59.8,56.7,95,88,78,30.07,30.02,5,1,7,0.01
2013-9-5,71.3,64.0,59.0,62.2,59.8,57.3,95,87,72,30.06,29.94,6,2,10,0.73
2013-9-6,73.0,64.4,60.1,62.8,60.6,59.1,97,88,69,30.13,29.97,5,2,8,1.00
2013-9-7,74.4,65.1,59.7,62.1,60.1,57.7,95,85,59,30.13,30.03,4,1,7,0.00
2013-9-8,78.2,66.3,57.6,64.1,60.2,56.2,96,82,57,30.13,30.04,5,1,7,0.00
2013-9-9,79.0,65.8,56.5,63.6,59.7,55.1,96,82,57,30.09,29.99,4,1,7,0.00
2013-9-10,80.8,65.7,57.8,65.3,60.5,56.2,95,84,57,30.02,29.90,5,1,7,0.00
2013-9-11,94.0,72.8,58.6,68.2,62.4,57.2,96,74,37,29.96,29.88,3,1,6,0.00
2013-9-12,80.7,68.6,60.2,64.8,61.8,58.2,95,80,55,30.02,29.91,4,1,7,0.00
2013-9-13,67.4,64.1,59.5,62.1,60.5,57.9,96,88,83,29.99,29.89,3,0,4,0.00
2013-9-14,68.2,64.4,59.7,62.1,60.6,58.0,94,87,81,29.90,29.76,3,1,5,0.00
2013-9-15,67.9,63.1,59.2,62.3,60.3,57.7,96,91,80,29.84,29.73,6,2,11,0.29
2013-9-16,68.3,62.7,58.7,60.2,58.2,53.5,90,85,74,29.96,29.83,7,3,11,0.02
2013-9-17,63.1,58.7,54.7,55.0,53.0,51.0,91,82,66,29.96,29.89,3,1,4,0.00
2013-9-18,68.9,60.2,51.0,54.0,52.3,48.8,92,76,53,30.09,29.96,6,2,8,0.00
2013-9-19,82.4,60.4,44.5,54.6,49.3,43.2,96,72,29,30.07,29.78,4,1,6,0.01
2013-9-20,75.8,62.1,51.5,57.0,51.9,47.3,95,72,41,29.78,29.61,5,1,7,0.09
2013-9-21,72.3,62.7,57.0,56.9,54.3,47.9,96,76,43,29.73,29.67,5,1,8,0.00
2013-9-22,61.2,58.0,54.7,55.3,52.8,49.2,92,83,65,29.77,29.60,8,4,13,0.45
2013-9-23,60.2,56.3,51.6,54.5,52.1,49.9,94,86,75,29.99,29.77,7,4,14,0.29
2013-9-24,63.8,54.2,49.2,52.4,48.8,46.5,96,83,54,29.98,29.86,5,1,7,0.04
2013-9-25,60.8,51.8,46.3,51.3,48.7,44.7,96,90,64,30.06,29.88,3,1,7,0.03
2013-9-26,63.6,51.6,41.6,51.7,46.7,40.3,96,84,59,30.16,30.05,5,1,7,0.01
2013-9-27,58.4,55.1,47.0,52.8,49.7,45.0,93,82,72,30.15,29.88,8,4,19,0.07
2013-9-28,62.2,57.0,52.1,57.9,53.7,48.6,95,89,78,29.87,29.38,10,4,15,2.42
2013-9-29,60.7,54.2,52.1,52.4,49.2,47.5,93,83,66,29.60,29.19,10,5,15,0.87
2013-9-30,55.4,51.6,48.7,51.6,47.9,44.7,92,87,81,29.95,29.49,10,6,14,1.25
2013-10-1,56.4,51.0,47.1,48.7,46.3,44.3,93,84,71,30.14,29.94,10,5,13,0.32
2013-10-2,54.4,51.1,48.4,49.1,47.2,46.1,95,87,76,30.20,30.08,8,2,11,0.24
2013-10-3,56.6,50.6,43.4,50.2,47.0,41.8,96,88,69,30.48,30.20,2,0,4,0.00
2013-10-4,64.2,49.0,37.0,54.2,44.4,36.0,97,85,62,30.51,30.38,4,1,6,0.01
2013-10-5,70.9,52.7,40.1,54.5,46.5,38.8,96,82,46,30.38,30.16,4,1,7,0.01
2013-10-6,77.0,55.4,40.6,55.5,46.5,39.3,96,76,31,30.15,29.90,5,1,6,0.00
2013-10-7,60.6,55.2,52.6,51.3,49.1,45.5,93,80,60,30.04,29.93,8,5,18,0.23
2013-10-8,55.4,50.6,42.9,50.0,46.8,41.5,95,87,71,30.10,29.99,8,2,10,0.24
2013-10-9,59.6,47.4,37.2,48.8,43.3,36.2,97,87,62,30.17,29.98,3,1,5,0.01
2013-10-10,60.3,51.1,44.5,50.9,46.7,42.9,95,86,60,30.09,29.96,5,1,10,0.06
2013-10-11,56.6,52.0,48.5,51.4,49.2,46.9,96,91,77,30.16,30.09,2,0,4,0.39
2013-10-12,57.3,50.9,46.7,49.9,47.7,45.1,96,89,72,30.24,30.09,4,1,10,0.10
2013-10-13,55.8,46.2,40.1,48.7,43.7,38.8,97,91,74,30.39,30.24,4,0,5,0.00
2013-10-14,59.4,45.1,36.1,50.0,41.9,35.1,97,90,64,30.46,30.38,3,0,4,0.01
2013-10-15,61.7,46.9,38.2,49.8,43.5,37.2,97,89,64,30.41,30.20,4,0,5,0.00
2013-10-16,53.1,48.3,43.2,48.3,45.9,42.0,97,92,83,30.23,30.17,3,0,6,0.00
2013-10-17,55.4,48.4,41.9,49.0,45.8,40.6,95,91,78,30.30,30.23,2,0,3,0.00
2013-10-18,60.4,45.7,38.3,52.2,43.4,37.3,98,92,71,30.27,30.17,3,0,4,0.01
2013-10-19,48.3,45.1,41.4,46.7,44.0,40.3,98,96,93,30.22,30.17,2,0,3,0.01
2013-10-20,48.7,45.8,43.8,45.9,44.1,42.3,96,94,90,30.24,30.18,2,0,4,0.00
2013-10-21,50.9,46.4,42.3,47.7,44.5,41.0,96,93,86,30.20,30.12,2,1,4,0.01
2013-10-22,55.8,46.7,40.9,50.3,44.8,39.3,97,93,81,30.15,30.06,4,1,5,0.00
2013-10-23,60.1,47.0,40.9,52.9,44.9,40.1,98,93,75,30.08,30.00,3,0,7,0.00
2013-10-24,51.1,47.2,43.4,49.4,46.1,42.3,98,96,94,30.15,30.05,3,0,3,0.01
2013-10-25,51.9,48.7,46.2,49.0,46.6,44.1,97,93,87,30.34,30.15,4,1,4,0.00
2013-10-26,50.6,48.4,45.3,46.3,45.5,44.2,97,90,84,30.36,30.22,3,1,4,0.00
2013-10-27,52.1,47.6,43.4,49.3,45.5,42.3,97,92,85,30.22,29.93,5,1,5,0.06
2013-10-28,58.3,46.3,37.5,45.4,40.6,35.6,98,83,46,29.98,29.90,6,1,9,0.00
2013-10-29,58.6,41.9,32.3,41.2,35.9,31.0,96,82,45,30.06,29.98,4,1,6,0.01
2013-10-30,57.7,46.3,33.1,46.4,39.5,31.7,95,79,58,30.15,30.06,6,2,10,0.01
2013-10-31,54.7,52.1,49.7,51.1,48.3,42.7,94,87,70,30.28,30.13,5,2,11,0.02
2013-11-1,62.8,54.8,50.8,52.5,50.3,48.9,95,85,67,30.29,29.86,3,0,4,0.00
2013-11-2,56.2,51.0,44.8,51.1,45.0,39.5,96,80,65,29.91,29.53,15,6,22,0.45
2013-11-3,52.1,46.6,44.1,41.3,40.4,38.3,87,79,60,30.08,29.91,7,3,10,0.01
2013-12-19,38.1,33.2,29.7,30.9,29.0,27.1,90,84,66,30.32,30.24,3,1,4,0.01
2013-12-20,40.8,35.6,29.7,40.0,33.9,26.9,97,94,89,30.23,29.74,7,1,9,0.51
2013-12-21,45.5,41.8,38.9,44.8,40.9,38.1,98,97,95,30.19,29.86,4,1,6,0.39
2013-12-22,50.5,48.2,45.2,48.6,46.8,43.9,97,95,89,30.32,30.18,9,4,16,0.32
2013-12-23,52.1,48.9,44.2,48.5,45.3,40.0,95,87,74,30.54,30.16,11,5,17,0.21
2013-12-24,45.7,39.4,32.9,41.4,37.4,31.4,97,93,84,30.65,30.54,2,0,3,0.00
2013-12-25,40.9,35.1,31.5,37.5,33.6,30.7,97,94,87,30.56,30.42,2,1,4,0.00
2013-12-26,45.4,36.2,31.4,39.9,34.2,30.3,97,93,78,30.43,30.24,3,0,5,0.00
2013-12-27,51.4,39.5,30.9,46.5,38.0,29.9,98,95,70,30.40,30.14,9,1,18,0.12
2013-12-28,47.0,42.1,37.6,45.1,40.8,36.6,98,95,88,30.55,30.40,3,0,4,0.03
2013-12-29,42.7,38.6,34.3,40.1,37.1,33.3,97,94,89,30.51,30.34,2,1,5,0.01
2013-12-30,46.7,40.6,36.4,42.4,39.1,35.4,97,95,80,30.34,30.15,5,1,8,0.03
2013-12-31,47.5,44.8,39.5,45.4,42.6,38.5,96,92,83,30.41,30.21,4,1,8,0.03
2014-1-1,42.1,39.3,35.9,40.5,38.3,35.0,98,96,93,30.44,30.26,2,0,3,0.01
2014-1-2,52.7,45.2,40.9,45.4,42.6,40.1,98,91,68,30.27,29.92,9,2,15,0.97